Time,TemperatureF,DewpointF,PressureIn,WindDirection,WindDirectionDegrees,WindSpeedMPH,WindSpeedGustMPH,Humidity,HourlyPrecipIn,Conditions,Clouds,dailyrainin,SoftwareType,DateUTC
2013-05-18 01:02:00,71.0,-99.9,-100.00,SE,143,8.0,9.0,-999,-99.99,,,-99.99,,2013-05-18 06:02:00,
2013-05-18 01:12:00,71.0,-99.9,-100.00,SE,143,8.0,9.0,-999,-99.99,,,-99.99,,2013-05-18 06:12:00,
2013-05-18 03:02:00,66.0,-99.9,-100.00,South,179,6.0,6.0,-999,-99.99,,,-99.99,,2013-05-18 08:02:00,
2013-05-18 03:11:00,66.0,-99.9,-100.00,South,179,6.0,6.0,-999,-99.99,,,-99.99,,2013-05-18 08:11:00,
2013-05-18 03:22:00,69.0,-99.9,-100.00,South,174,6.0,9.0,-999,-99.99,,,-99.99,,2013-05-18 08:22:00,
2013-05-18 03:33:00,69.0,-99.9,-100.00,South,174,6.0,9.0,-999,-99.99,,,-99.99,,2013-05-18 08:33:00,
2013-05-18 03:42:00,69.0,-99.9,-100.00,South,174,6.0,9.0,-999,-99.99,,,-99.99,,2013-05-18 08:42:00,
2013-05-18 04:33:00,68.0,-99.9,-100.00,South,185,7.0,7.0,-999,-99.99,,,-99.99,,2013-05-18 09:33:00,
2013-05-18 04:43:00,68.0,-99.9,-100.00,South,185,7.0,7.0,-999,-99.99,,,-99.99,,2013-05-18 09:43:00,
2013-05-18 04:53:00,68.0,-99.9,-100.00,South,185,7.0,7.0,-999,-99.99,,,-99.99,,2013-05-18 09:53:00,
2013-05-18 05:33:00,62.0,-99.9,-100.00,SW,214,4.0,6.0,-999,-99.99,,,-99.99,,2013-05-18 10:33:00,
2013-05-18 05:42:00,62.0,-99.9,-100.00,SW,214,4.0,6.0,-999,-99.99,,,-99.99,,2013-05-18 10:42:00,
2013-05-18 05:53:00,62.0,-99.9,-100.00,SW,214,4.0,6.0,-999,-99.99,,,-99.99,,2013-05-18 10:53:00,
2013-05-18 07:02:00,62.0,-99.9,-100.00,SSW,193,2.0,6.0,-999,-99.99,,,-99.99,,2013-05-18 12:02:00,
2013-05-18 07:12:00,62.0,-99.9,-100.00,SSW,193,2.0,6.0,-999,-99.99,,,-99.99,,2013-05-18 12:12:00,
2013-05-18 07:23:00,62.0,-99.9,-100.00,SSW,193,2.0,6.0,-999,-99.99,,,-99.99,,2013-05-18 12:23:00,
2013-05-18 09:04:00,66.0,-99.9,-100.00,SW,221,2.0,8.0,-999,-99.99,,,-99.99,,2013-05-18 14:04:00,
2013-05-18 09:12:00,66.0,-99.9,-100.00,SW,221,2.0,8.0,-999,-99.99,,,-99.99,,2013-05-18 14:12:00,
2013-05-18 10:00:00,80.0,-99.9,-100.00,WNW,282,10.0,10.0,-999,-99.99,,,-99.99,,2013-05-18 15:00:00,
2013-05-18 10:30:00,83.0,-99.9,-100.00,WSW,245,8.0,13.0,-999,-99.99,,,-99.99,,2013-05-18 15:30:00,
2013-05-18 10:54:00,80.0,-99.9,-100.00,WNW,282,10.0,10.0,-999,-99.99,,,-99.99,,2013-05-18 15:54:00,
2013-05-18 11:22:00,83.0,-99.9,-100.00,WSW,245,8.0,13.0,-999,-99.99,,,-99.99,,2013-05-18 16:22:00,
2013-05-18 12:00:00,87.0,-99.9,-100.00,WSW,252,16.0,16.0,-999,-99.99,,,-99.99,,2013-05-18 17:00:00,
2013-05-18 12:33:00,87.0,-99.9,-100.00,WSW,252,16.0,16.0,-999,-99.99,,,-99.99,,2013-05-18 17:33:00,
2013-05-18 12:42:00,87.0,-99.9,-100.00,WSW,252,16.0,16.0,-999,-99.99,,,-99.99,,2013-05-18 17:42:00,
2013-05-18 12:52:00,87.0,-99.9,-100.00,WSW,252,16.0,16.0,-999,-99.99,,,-99.99,,2013-05-18 17:52:00,
2013-05-18 14:00:00,87.0,-99.9,-100.00,WSW,255,17.0,18.0,-999,-99.99,,,-99.99,,2013-05-18 19:00:00,
2013-05-18 14:52:00,87.0,-99.9,-100.00,WSW,255,17.0,18.0,-999,-99.99,,,-99.99,,2013-05-18 19:52:00,
2013-05-18 15:40:00,91.0,-99.9,-100.00,WSW,244,4.0,15.0,-999,-99.99,,,-99.99,,2013-05-18 20:40:00,
2013-05-18 16:22:00,91.0,-99.9,-100.00,WSW,244,4.0,15.0,-999,-99.99,,,-99.99,,2013-05-18 21:22:00,
2013-05-18 16:33:00,91.0,-99.9,-100.00,WSW,244,4.0,15.0,-999,-99.99,,,-99.99,,2013-05-18 21:33:00,
2013-05-18 17:40:00,92.0,-99.9,-100.00,WSW,241,12.0,17.0,-999,-99.99,,,-99.99,,2013-05-18 22:40:00,
2013-05-18 18:22:00,92.0,-99.9,-100.00,WSW,241,12.0,17.0,-999,-99.99,,,-99.99,,2013-05-18 23:22:00,
2013-05-18 18:32:00,92.0,-99.9,-100.00,WSW,241,12.0,17.0,-999,-99.99,,,-99.99,,2013-05-18 23:32:00,
2013-05-18 19:02:00,91.0,-99.9,-100.00,South,190,11.0,16.0,-999,-99.99,,,-99.99,,2013-05-19 00:02:00,
2013-05-18 19:12:00,91.0,-99.9,-100.00,South,190,11.0,16.0,-999,-99.99,,,-99.99,,2013-05-19 00:12:00,
2013-05-18 21:02:00,84.0,-99.9,-100.00,WSW,250,7.0,14.0,-999,-99.99,,,-99.99,,2013-05-19 02:02:00,
2013-05-18 21:11:00,84.0,-99.9,-100.00,WSW,250,7.0,14.0,-999,-99.99,,,-99.99,,2013-05-19 02:11:00,
2013-05-18 23:03:00,69.0,-99.9,-100.00,South,183,6.0,6.0,-999,-99.99,,,-99.99,,2013-05-19 04:03:00,
2013-05-18 23:13:00,69.0,-99.9,-100.00,South,183,6.0,6.0,-999,-99.99,,,-99.99,,2013-05-19 04:13:00,